Current weather by "City, St" or "zip code"  
 

Current Conditions: Du Bois - Jefferson County Airport, PA

Overcast


43.0 F

Last Updated on Oct 24 2020, 8:53 pm EDT
Humidity: 65%
Wind Speed: N 5.8 mph
Barometer 30.13 in
Dewpoint: 32.0 F
Visibility: 10.00 mi
Precip: --
Heat Index: NA
Wind Chill: 39 F
Current conditions at:

Du Bois - Jefferson County Airport, PA (KDUJ)

Lat: 41.17948 Lon: 78.89326

Local Radar Image active severe weather and emergency alerts image image weather storm and storm spotter reports image weather observation monitoring service image
Local
Radar
Active
Alerts
Storm Reports Obs
Monitoring

Sign-up For Email & Text Message Weather Alert Notification Services



Advertise Here

Observation History for Du Bois - Jefferson County Airport, PA


Time Wind
(mph)
Vis
(mi)
Weather Precip (in) Temperature (F) Relative
Humidity
Wind
Chill
(F)
Heat
Index
(F)
Pressure
Air Dwpt altimeter
(in)
sea level
(mb)
Rmks
8:53 pm EDT N 5.8 10.00 Overcast -- 43.0 32.0 65% 39 NA 30.13 1021.1
7:53 pm EDT N 4.6 10.00 Overcast -- 43.0 32.0 65% 40 NA 30.11 1020.5
6:53 pm EDT N 6.9 10.00 Mostly Cloudy -- 43.0 32.0 65% 39 NA 30.11 1020.1
5:53 pm EDT NW 9.2 10.00 Overcast -- 44.0 33.1 65% 39 NA 30.09 1019.5
4:53 pm EDT NW 9.2 10.00 Mostly Cloudy -- 45.0 34.0 66% 40 NA 30.09 1019.1
3:53 pm EDT NW 10.4 10.00 Mostly Cloudy -- 46.0 34.0 63% 41 NA 30.07 1018.3
2:53 pm EDT N 8.1 10.00 Overcast -- 47.0 37.0 69% 43 NA 30.08 1018.5
1:53 pm EDT N 8.1 10.00 Overcast -- 46.0 36.0 68% 42 NA 30.08 1018.7
12:53 pm EDT NW 11.5 10.00 Overcast -- 45.0 37.0 74% 39 NA 30.10 1019.2
11:53 am EDT N 11.5 4.00 Fog/Mist -- 43.0 39.9 89% 37 NA 30.10 1019.3
10:53 am EDT NW 8.1 2.50 Fog/Mist -- 44.0 41.0 89% 39 NA 30.10 1019.1
9:53 am EDT NW 10.4 10.00 Overcast -- 45.0 39.9 83% 40 NA 30.09 1018.6
8:53 am EDT NW 8.1 10.00 Overcast -- 46.0 42.1 86% 42 NA 30.06 1017.6
7:53 am EDT NW 8.1 10.00 Overcast -- 47.0 44.1 90% 43 NA 30.03 1016.6
6:53 am EDT NW 12.7 5.00 Fog/Mist -- 48.0 45.0 89% 43 NA 30.02 1016.0
5:53 am EDT NW 11.5 10.00 Overcast -- 50.0 46.9 89% 46 NA 29.99 1014.9
4:53 am EDT NW 16.1 G 24.2 7.00 Overcast 00.02 54.0 52.0 93% 50 NA 29.96 1013.6
3:53 am EDT SW 9.2 8.00 Overcast 00.02 61.0 59.0 93% 60 NA 29.92 1012.1
2:53 am EDT SW 6.9 10.00 Overcast 00.01 61.0 57.9 90% 60 NA 29.92 1011.8
1:53 am EDT SW 5.8 10.00 Overcast 00.02 61.0 57.9 90% 61 NA 29.93 1012.3
12:53 am EDT W 9.2 10.00 Mostly Cloudy 00.03 61.0 57.0 87% 60 NA 29.94 1012.9
11:53 pm EDT S 6.9 10.00 Overcast -- 65.0 53.1 66% NA NA 29.93 1012.4
10:53 pm EDT S 3.5 10.00 Overcast -- 65.0 53.1 66% NA NA 29.95 1013.2
9:53 pm EDT S 5.8 10.00 Mostly Cloudy -- 67.0 53.1 61% NA NA 29.95 1013.3

Regional Weather Observation


Franklin, Venango Regional Airport, PA (KFKL)

Overcast
41.0 F

Bradford Regional Airport, PA (KBFD)

Overcast
40.0 F

Clearfield, Clearfield-Lawrence Airport, PA (KFIG)

A Few Clouds
39.0 F

Indiana / Stewart Field, PA (KIDI)

Overcast
46.0 F

Butler, Butler County Airport/K W Scholter Field, PA (KBTP)

Overcast
45.0 F

Jamestown, Chautauqua County/Jamestown Airport, NY (KJHW)

Overcast
39.0 F